Location: Baia Mare
(47.6567°N, 23.5850°E)
Time: 23:42:39
(UTC+03:00)

ISS - Pass Details

Date: 24 September 2019
Orbit: 411 x 421 km, 51.6° (Epoch: 19 September)

Event Time Altitude Azimuth Distance (km) Brightness Sun altitude
Rises 20:47:07 0° 256° (WSW) 2,340 1.1 -15.3°
Reaches altitude 10° 20:49:13 10° 259° (W) 1,479 0.0 -15.6°
Maximum altitude 20:52:31 62° 342° (NNW) 466 -3.4 -16.1°
Enters shadow 20:54:02 29° 54° (NE) 798 -2.7 -16.4°
